Dewpoint
68 67 68 73 74 74 74 74 74 74 75 75 75 74 75 75 75 74 74 74 73 73 73 73 72 72 72 72 72 72 72 72 72 72 72 72 70 70 70 70 69 70 70 68 67 68 67 67 67 67 67 67 67 67 67 65 65 64 64 64 64 65 67 69 68 69 70 70 70 70 70 70 69 69 69 70 70 70 69 69 68 67 66 68 69
68 68 69 72 74 74 74 74 74 74 75 74 74 74 74 74 74 74 74 74 73 73 73 73 72 72 72 72 71 71 71 72 72 72 71 71 70 69 70 69 69 69 69 67 67 67 67 68 67 67 67 67 67 67 67 66 66 64 63 63 64 68 68 69 69 69 70 70 70 70 70 70 70 70 69 69 70 70 69 69 69 67 67 69 69
68 68 69 71 74 74 74 74 74 74 74 74 74 74 74 74 74 74 74 74 73 73 73 73 72 72 71 71 71 71 71 72 72 71 71 71 69 69 69 69 70 70 68 67 68 68 68 67 68 68 68 67 67 67 67 67 67 65 64 65 67 68 67 68 69 69 69 70 70 70 69 69 69 69 69 70 70 70 69 69 68 68 66 67 67
67 68 68 72 73 73 73 74 73 74 74 74 74 74 73 74 74 74 74 73 73 73 73 73 72 72 71 71 71 71 71 71 72 71 71 71 70 69 69 69 70 68 67 67 69 68 68 68 68 67 68 68 69 68 67 67 67 66 66 66 66 67 68 67 67 66 66 70 70 69 68 68 68 69 69 69 69 69 69 69 68 68 68 68 67
68 67 68 71 72 73 73 73 73 73 73 73 73 73 73 74 73 73 73 73 73 73 72 72 72 71 71 71 71 70 71 71 71 70 70 71 70 69 70 70 68 67 67 69 69 68 68 68 68 68 68 69 69 69 69 67 67 66 66 65 66 67 67 67 66 65 66 65 68 68 67 67 68 69 69 69 69 68 68 68 67 67 66 66 67
68 67 68 68 69 72 73 73 73 73 73 73 73 73 73 73 73 73 73 73 73 72 72 72 71 71 71 70 70 70 71 70 70 70 70 71 71 71 70 68 68 68 68 68 69 68 69 69 69 69 69 69 69 70 70 69 67 66 66 66 66 66 66 67 66 64 63 65 67 63 64 64 65 67 69 69 69 69 68 68 68 67 66 65 65
68 68 67 67 68 70 73 73 73 73 73 73 73 73 73 73 73 73 73 73 72 72 72 71 71 71 71 70 70 70 70 70 70 71 72 72 72 71 69 69 68 68 68 69 69 69 70 70 69 69 69 69 69 69 69 69 67 66 66 66 66 66 66 65 65 64 64 66 60 60 62 62 63 65 69 69 69 69 68 68 67 67 66 65 65
68 67 66 66 68 71 73 73 73 73 73 73 72 72 73 73 72 72 72 72 72 72 72 71 71 71 70 70 71 71 70 70 72 72 72 72 72 71 70 68 68 69 69 69 70 70 70 70 70 70 69 69 69 69 68 69 69 66 66 66 66 65 66 65 64 63 65 60 61 60 60 60 61 63 68 68 68 68 68 68 67 67 66 66 65
67 66 66 67 68 72 73 72 72 73 72 72 72 72 72 72 72 72 72 72 72 72 72 71 71 71 71 71 71 71 70 70 71 71 71 72 71 71 69 69 70 71 71 71 71 71 70 69 69 69 69 69 68 68 69 69 69 67 66 65 66 66 65 63 63 64 63 60 60 59 60 59 61 61 65 66 68 68 67 67 67 66 66 66 65
66 67 67 67 68 73 72 72 72 72 72 72 72 72 72 72 71 72 72 72 72 72 72 72 72 71 71 71 71 70 70 71 71 71 71 71 71 71 70 71 70 70 71 71 71 70 70 69 69 69 69 68 69 68 69 69 69 68 66 66 66 66 65 64 64 64 58 59 59 61 63 62 59 60 64 66 66 68 67 67 66 66 66 66 66
68 68 67 67 68 73 72 72 72 72 72 72 71 72 72 72 72 72 72 72 72 72 73 72 72 72 71 71 71 70 70 71 71 71 71 71 71 71 71 71 71 71 70 70 70 70 70 69 69 69 69 69 69 69 69 69 69 69 67 66 66 65 65 65 67 58 58 56 59 61 61 64 62 63 66 65 65 65 65 65 65 64 64 65 66
67 68 68 67 72 72 72 72 72 72 71 71 71 71 72 72 71 72 72 72 72 72 72 72 72 71 72 71 71 70 70 70 71 71 71 70 70 70 70 70 70 70 70 70 70 70 70 69 69 69 69 69 69 69 69 69 70 70 67 67 67 66 65 64 61 59 60 59 60 62 58 57 59 60 63 62 62 62 62 63 63 63 64 65 64
67 67 67 69 69 72 72 72 72 72 71 71 71 72 72 72 72 72 72 72 72 72 72 72 72 71 71 71 70 70 70 70 71 71 71 70 70 70 69 70 70 71 71 70 70 70 69 69 69 69 69 69 69 69 69 70 70 70 68 67 67 66 65 65 58 57 58 60 61 60 58 61 62 63 63 65 66 65 64 63 64 63 63 63 62
67 67 67 67 68 72 72 72 72 72 71 71 72 72 72 72 72 72 72 72 72 72 72 72 72 71 70 70 70 70 70 71 71 71 70 70 70 70 69 70 71 70 70 70 69 69 69 69 69 69 69 69 69 69 69 70 70 70 68 68 67 65 65 67 63 58 59 59 62 60 62 63 61 65 63 64 64 64 63 62 62 64 64 62 62
67 68 68 66 68 70 73 72 72 71 71 72 72 72 72 72 72 72 72 72 72 72 72 72 72 71 70 70 70 70 71 71 71 70 70 70 70 69 70 70 70 70 70 69 69 69 69 70 69 69 69 69 69 69 69 69 69 69 68 67 67 66 66 57 56 59 59 61 61 58 59 61 65 65 63 64 63 63 62 63 63 62 62 63 64
68 68 67 67 66 69 70 72 72 72 72 72 72 72 72 72 72 72 72 72 72 72 72 72 72 71 71 72 72 71 71 71 71 71 70 70 70 70 70 70 70 70 70 69 69 69 69 69 69 69 69 69 69 69 69 69 69 69 68 67 66 66 66 67 59 60 62 62 61 62 61 63 67 64 63 63 62 63 63 63 63 61 61 61 61
67 67 67 66 66 67 67 69 71 72 72 72 72 72 72 72 72 72 72 72 72 72 72 72 71 71 72 72 71 71 71 71 71 71 70 70 70 70 70 70 70 70 70 69 69 69 68 68 68 68 69 69 70 69 69 69 69 69 68 68 67 66 66 67 58 61 60 60 59 59 62 61 63 63 62 62 62 63 62 62 62 62 62 62 62
66 65 66 66 66 65 68 68 70 70 72 72 72 72 72 72 72 72 72 72 72 72 72 71 71 72 72 72 71 71 71 71 71 71 70 70 71 70 70 70 70 70 69 69 69 68 68 68 68 68 68 69 69 69 69 69 69 69 68 68 67 66 65 67 61 60 60 62 61 62 62 64 64 64 63 63 62 62 62 61 62 61 60 63 63
65 64 64 65 65 66 67 68 69 68 70 69 69 72 72 72 72 72 72 72 72 71 72 71 71 71 71 70 71 71 70 70 71 70 70 70 70 70 70 70 70 69 69 69 69 69 68 67 67 67 68 68 69 69 69 68 68 68 68 67 67 65 66 67 60 60 63 63 63 62 62 64 64 64 63 63 64 62 63 63 62 62 63 62 62
65 65 65 64 64 65 67 67 67 68 69 69 69 72 72 72 72 72 72 72 71 71 70 70 70 70 70 70 70 70 70 70 70 69 70 70 70 68 70 70 69 69 69 69 68 68 67 67 67 67 67 68 68 69 69 69 68 68 67 67 67 66 66 62 62 60 62 61 63 62 64 64 63 63 64 64 63 63 62 61 62 62 62 63 62
65 66 66 65 64 66 65 66 67 70 70 70 71 72 72 72 72 71 71 71 71 71 70 70 70 70 70 70 70 71 70 71 70 68 70 71 69 70 69 69 69 69 68 68 68 67 66 67 67 68 68 68 68 69 69 69 68 68 68 67 67 65 65 64 63 63 62 61 62 60 64 64 64 64 63 63 63 63 62 61 61 62 62 63 63
66 66 66 64 65 65 65 66 68 70 70 69 71 70 71 70 70 71 70 72 71 71 71 70 69 69 70 70 69 69 68 69 70 69 70 70 70 69 69 68 68 68 68 68 67 66 67 67 67 67 67 67 68 65 68 69 69 68 68 68 65 64 65 65 64 61 59 62 62 64 65 64 63 63 63 62 62 63 62 62 61 62 61 62 62
65 66 66 65 66 66 67 67 70 70 70 69 69 71 70 70 69 67 67 68 69 69 68 69 69 69 69 68 68 69 69 69 69 68 69 69 70 69 68 68 68 68 68 67 67 67 67 67 67 67 67 66 65 64 64 66 67 68 68 67 66 64 66 66 64 63 61 63 63 65 64 64 64 63 63 63 63 62 63 62 61 61 61 61 62
65 68 66 67 68 68 68 71 71 70 69 69 69 70 69 69 67 65 65 68 68 68 69 69 68 69 68 69 69 70 69 70 67 68 68 68 69 69 68 68 67 67 67 66 67 67 67 67 66 66 66 64 62 62 62 64 66 67 67 65 63 64 65 65 61 63 63 61 62 65 64 64 64 63 62 62 63 62 63 63 62 62 62 61 61
70 70 68 69 70 70 68 69 70 70 69 68 68 69 69 68 66 64 67 68 68 68 68 68 68 69 70 69 67 67 65 66 67 66 64 65 66 66 66 65 65 66 67 64 63 61 64 61 62 63 60 60 60 61 61 61 64 66 66 65 64 64 64 64 62 62 63 64 65 67 65 65 65 64 64 64 63 63 63 62 62 62 61 61 61
67 66 67 68 68 70 70 69 69 70 71 70 69 69 70 68 66 66 69 68 67 68 68 68 68 69 68 68 66 66 65 64 64 64 64 64 64 62 63 62 62 63 65 63 62 61 62 61 62 62 62 61 61 61 61 61 61 63 64 65 64 64 62 62 63 63 65 65 66 67 66 66 66 66 66 65 63 62 62 62 62 61 61 60 60
65 66 67 68 68 70 69 68 69 69 68 70 71 69 69 68 66 68 69 69 69 68 67 67 68 68 69 68 68 67 65 63 64 64 64 65 64 63 63 63 64 62 64 64 63 64 62 62 63 64 62 60 58 59 59 60 60 60 63 63 63 62 63 62 63 63 64 63 66 68 68 67 67 66 65 63 62 62 63 63 62 62 61 62 61
66 66 67 67 68 68 69 69 68 69 68 69 69 70 68 67 67 67 68 68 68 68 68 68 69 69 70 70 70 68 65 63 65 64 64 65 65 65 64 63 63 63 65 64 63 63 64 65 65 63 60 59 58 58 56 56 59 61 61 62 63 64 64 62 64 65 65 65 65 67 68 67 67 65 64 64 63 63 62 62 62 62 62 60 60
64 65 67 68 69 69 69 69 69 68 69 70 70 68 68 68 67 68 68 68 69 69 70 71 70 70 71 70 70 69 66 66 65 64 64 66 66 65 63 62 63 62 64 64 64 64 64 63 64 63 63 62 62 61 59 59 59 60 61 61 62 62 63 64 65 65 67 66 65 67 67 68 67 66 65 64 64 63 63 62 62 62 62 62 61
64 65 68 69 70 71 69 68 69 69 70 70 70 70 69 68 67 67 69 69 68 70 70 70 72 72 71 69 71 72 68 66 65 64 63 64 64 67 66 64 64 64 65 65 65 65 63 64 64 65 62 62 61 61 60 58 56 59 59 61 61 61 64 63 64 64 65 65 67 68 68 68 68 67 66 65 65 64 63 62 62 62 62 61 61
64 64 66 69 69 70 69 68 70 70 69 69 69 70 70 69 69 67 69 69 69 70 69 70 69 71 71 71 69 70 69 68 66 65 65 63 65 66 66 66 65 66 65 65 66 67 65 64 66 63 64 63 63 62 62 61 59 57 60 59 61 63 63 64 63 63 64 65 65 66 66 67 67 67 67 67 65 64 64 63 62 62 62 62 62
65 64 67 69 68 69 70 68 70 69 68 67 68 68 70 71 69 67 68 68 69 70 68 69 69 69 70 70 71 70 70 69 68 67 66 64 65 64 65 65 64 64 65 65 65 66 65 64 67 67 67 66 64 64 65 63 62 59 58 59 61 62 61 63 62 64 63 66 67 68 67 65 66 67 66 67 66 65 64 64 63 63 63 63 62
66 66 68 69 68 68 69 68 68 68 67 66 68 68 68 68 68 68 66 67 68 68 68 69 69 69 68 70 70 69 69 69 68 67 66 65 66 66 65 65 65 65 66 67 67 67 65 65 66 66 65 65 65 65 63 64 64 64 64 61 62 59 60 61 62 63 65 67 67 66 66 66 64 65 67 66 67 66 65 65 64 64 63 63 62
67 68 68 68 68 68 68 68 67 66 66 66 66 67 67 67 69 68 69 68 68 67 69 69 69 69 69 70 70 69 68 69 67 66 66 66 66 65 65 64 65 65 66 67 64 64 63 63 63 64 64 64 64 65 63 63 62 62 64 64 62 65 64 61 70 67 67 66 68 66 66 67 66 65 65 66 67 67 66 65 64 64 63 63 63
65 67 67 67 68 68 68 66 66 66 66 66 67 66 67 67 68 68 68 67 67 68 70 69 70 69 68 71 70 69 68 68 67 67 66 66 66 66 65 64 66 67 65 65 65 65 64 64 62 62 63 62 63 64 64 64 64 64 65 66 66 64 66 66 66 66 66 67 68 66 66 65 65 65 64 63 67 67 67 66 64 64 64 63 63
65 65 67 68 69 68 68 66 66 66 66 67 67 67 67 68 68 67 69 66 67 67 68 69 68 69 68 67 68 68 68 68 68 68 67 67 66 66 66 66 66 65 65 65 66 64 64 64 63 63 61 60 61 62 63 63 64 64 65 65 65 65 65 64 65 66 66 67 67 67 66 66 66 66 65 65 67 66 67 67 66 65 64 64 63
66 66 66 68 68 68 67 66 65 66 66 66 67 67 67 67 67 67 67 69 68 68 67 68 68 67 67 67 68 68 68 68 68 68 68 67 65 66 66 67 67 66 66 66 64 64 65 63 64 63 63 61 59 61 63 63 63 64 64 64 64 65 65 65 66 65 66 67 67 66 66 66 66 65 67 65 67 65 66 67 66 66 65 64 64
67 67 68 68 67 67 66 66 67 67 66 65 67 67 67 67 67 67 68 69 68 66 67 67 68 68 68 67 68 68 68 68 68 67 68 66 66 67 68 67 65 65 66 66 64 65 64 64 63 63 62 63 61 62 62 63 62 61 63 63 65 65 64 65 66 66 67 66 66 66 66 67 67 66 66 66 66 67 66 67 66 66 66 66 64
66 66 67 68 68 66 66 66 65 67 66 66 66 66 67 65 68 65 68 69 68 68 68 68 67 67 68 68 67 69 68 67 67 67 68 67 67 67 67 66 65 65 65 65 65 65 66 64 63 63 63 62 62 63 63 63 62 62 63 63 63 65 65 65 65 65 65 66 66 65 65 66 66 67 66 66 66 65 66 66 64 65 64 66 65
65 66 66 67 67 67 66 66 66 67 66 65 66 66 67 67 66 67 66 67 68 67 67 67 67 67 67 67 67 68 67 66 67 68 68 67 67 66 66 66 66 66 65 64 64 64 65 66 64 63 63 62 62 63 63 63 63 64 64 64 64 65 65 64 64 64 65 66 66 64 65 65 65 66 66 66 65 64 64 66 66 66 64 65 66
65 66 66 66 67 66 65 65 66 66 65 64 65 66 65 66 66 65 64 65 65 67 66 66 66 66 66 66 66 67 67 68 68 68 68 67 67 67 67 67 66 66 66 66 66 66 66 66 65 63 62 62 62 63 64 63 62 62 63 63 64 64 65 64 64 63 64 65 65 64 65 64 63 64 64 67 64 65 64 63 63 63 62 65 65
64 65 65 66 67 66 65 65 65 66 65 65 64 65 66 64 64 65 64 64 64 64 64 66 66 66 67 67 67 67 68 68 67 67 67 67 67 66 67 67 66 65 66 66 66 65 66 65 65 63 63 61 62 63 63 63 60 59 59 60 61 62 63 63 61 60 62 63 65 65 65 63 63 64 64 65 64 63 62 63 63 63 62 64 66
65 65 65 65 67 67 67 66 66 65 66 65 66 67 67 67 66 65 65 64 65 65 65 66 66 66 68 68 68 68 67 66 66 65 67 66 66 66 66 66 66 65 65 65 65 66 65 65 65 63 62 62 62 64 64 63 59 60 61 59 57 57 61 62 62 63 61 61 61 62 62 63 63 63 64 63 62 63 62 62 61 63 64 63 62
64 64 65 65 65 65 66 66 64 65 66 66 66 66 66 67 66 65 66 65 64 66 66 67 67 67 66 67 67 67 66 66 65 64 65 66 67 66 66 65 65 66 65 64 65 63 65 65 65 64 63 61 60 62 64 64 61 59 56 56 57 56 56 57 59 63 64 62 60 61 63 62 63 63 63 62 62 62 62 63 63 63 64 64 63
64 64 65 65 65 66 66 65 65 65 66 65 65 65 65 65 65 65 65 65 65 65 65 65 66 66 66 66 66 66 65 65 65 64 62 64 65 66 66 66 66 66 65 63 63 64 63 63 64 64 64 62 60 62 63 64 63 62 58 56 56 55 56 58 57 60 64 64 59 61 62 61 62 63 62 63 63 63 63 63 63 64 64 64 64
64 64 65 65 65 66 66 66 65 66 65 65 65 65 65 64 63 62 62 62 62 64 63 64 64 65 64 66 66 65 65 64 63 63 61 63 64 66 66 65 66 66 65 63 63 64 64 63 63 64 63 63 62 60 62 64 64 64 64 62 62 58 58 57 56 55 60 61 60 61 60 62 62 61 62 62 62 62 62 63 64 63 63 63 63
63 64 65 65 65 66 65 64 65 65 64 65 65 65 64 63 64 62 62 62 61 63 63 64 64 64 65 66 65 66 63 64 63 62 63 63 64 65 66 65 65 66 64 64 64 65 63 63 63 63 62 62 62 59 61 60 62 64 63 64 64 63 60 57 54 55 55 59 60 61 61 60 60 61 61 61 61 63 63 62 63 62 62 62 62
63 64 65 65 65 66 65 65 65 65 65 65 65 64 65 65 64 64 63 63 63 63 65 65 66 65 65 65 64 64 64 63 63 62 63 63 63 64 65 65 65 64 64 64 65 64 64 64 65 64 63 63 62 60 59 59 59 60 62 62 63 63 62 61 58 58 55 56 58 60 61 62 62 63 62 61 61 62 61 62 62 62 62 62 63
64 64 64 65 66 65 65 65 65 65 65 64 65 65 65 65 64 65 64 64 64 63 63 64 64 64 64 63 63 62 63 63 62 63 62 61 62 63 63 62 63 61 60 60 65 64 65 65 65 64 64 63 63 62 62 60 60 59 61 61 58 58 59 62 61 59 55 55 56 57 59 61 61 60 60 61 60 61 60 61 60 60 61 61 61
63 63 64 65 65 64 64 64 64 65 65 65 66 65 64 66 64 65 65 64 63 63 63 63 63 63 63 63 63 62 61 62 63 62 62 60 61 61 61 61 62 60 58 57 59 60 61 61 63 65 65 64 64 63 62 64 62 62 60 59 57 57 57 58 59 58 57 57 55 56 58 59 57 58 60 60 60 60 60 61 61 60 61 60 60
63 64 64 64 64 64 64 63 64 65 65 65 65 66 66 64 65 65 65 63 63 62 62 63 61 62 62 62 61 60 60 60 62 62 62 60 62 61 61 60 60 61 58 57 58 56 58 59 61 61 63 64 63 64 63 62 62 62 61 62 63 58 56 56 57 57 57 57 55 56 57 55 55 56 58 59 58 58 59 60 60 60 60 60 60